Weather in Teixeira de Freitas

Brazil     17°32′27″S   39°42′57″W
temp.,
°C
wind,
m/s
gust,
m/s
humid.,
%
clouds,
%
prec.,
mm/h
press.,
hPa
HPBL,
m
18 january, mon
mon1800:00+21nne11962 0.0 101423
03:00+21w12963 0.0 101324
06:00+21wsw12950 0.0 101445
09:00+26sw11700 0.0 1015847
12:00+29e116162 0.7 10141036
15:00+26e368056 6.3 1012356
18:00+24e488446 3.0 1012356
21:00+22ne499126 3.3 1014299
19 january, tue
tue1900:00+21ne389611 0.0 1015251
03:00+21nne229422 0.0 101436
06:00+21ne11910 0.0 101528
09:00+26ne34620 0.0 10161017
12:00+30ene34450 0.0 10151719
15:00+29ene66540 0.0 10131136
18:00+24e59750 0.0 1013413
21:00+22e37911 0.0 1015252
20 january, wed
wed2000:00+21ne22940 0.0 101630
03:00+21nw11941 0.0 101523
06:00+21wsw11920 0.0 101626
09:00+26wnw11690 0.0 1016865
12:00+28ese126068 0.5 10151047
15:00+30ene555355 0.6 10131663
18:00+25ene59754 0.0 1013408
21:00+22ene38852 0.0 1015242
21 january, thu
thu2100:00+21ene22930 0.0 101540
03:00+21n01950 0.0 101523
06:00+21w11920 0.0 101633
09:00+27wsw126422 0.7 1017721
12:00+28ese445942 0.8 10161114
15:00+27ese566868 1.6 1014754
18:00+25ene487338 0.1 1015229
21:00+22e368619 0.1 1016152
22 january, fri
fri2200:00+21e12940 0.0 101628
03:00+21e01940 0.0 101623
06:00+22wsw12930 0.0 101735
09:00+26sse12692 0.0 1018930
12:00+28se346143 1.3 10171142
15:00+29e765434 2.7 10151514
18:00+25ene48770 0.0 1016347
21:00+22e37880 0.0 1017193